Helicity
170 177 197 169 172 189 197 220 203 157 135 122 124 85 116 134 141 152 129 114 94 83 73 54 50 72 52 46 62 89 49 46 26 21 30 31 17 57
161 153 150 144 141 163 169 170 210 191 138 120 104 106 69 67 82 137 127 121 102 88 78 64 54 69 63 65 75 91 70 49 19 10 18 30 52 74
164 166 113 114 123 140 154 147 136 151 124 109 155 120 96 49 2 46 103 124 117 81 73 75 63 63 63 50 58 80 80 63 32 14 12 22 49 68
160 173 146 166 139 146 159 148 158 160 209 192 186 176 133 109 74 70 64 85 98 93 84 73 66 61 56 59 44 55 68 68 53 35 29 28 43 49
145 165 152 165 174 185 198 180 194 190 251 269 275 265 231 196 149 108 89 82 81 76 71 76 55 54 52 56 45 49 61 68 66 62 56 56 64 64
143 158 165 172 171 185 226 195 204 256 254 287 285 265 262 221 208 163 119 95 93 93 73 77 79 62 56 46 46 42 55 72 80 78 79 83 85 97
135 153 169 175 173 177 251 197 251 226 229 265 288 324 319 251 226 190 124 123 103 111 108 87 92 90 83 54 66 56 58 76 86 93 105 113 110 114
129 152 180 116 181 136 145 195 185 210 233 274 313 303 277 227 217 129 145 145 101 108 105 115 118 105 94 96 71 73 81 85 96 108 121 133 140 136
147 149 139 147 122 122 103 136 240 176 189 219 189 227 220 186 201 193 195 173 112 70 129 109 95 98 95 96 68 66 75 89 97 118 144 148 156 161
112 90 99 74 126 118 123 125 166 99 104 173 175 137 174 200 208 134 206 161 134 106 117 100 97 83 104 103 94 88 84 95 101 113 128 155 164 152
119 105 89 86 104 97 89 102 115 98 103 90 133 144 176 180 142 198 165 168 93 110 117 130 104 95 112 128 147 162 157 150 135 132 113 115 113 121
95 109 96 96 115 96 101 109 99 93 136 125 73 91 103 79 118 148 158 87 119 88 74 131 117 99 107 126 152 169 165 150 150 146 116 93 93 139
116 97 111 64 84 104 102 97 78 114 90 107 104 125 122 103 133 129 111 157 185 121 46 138 115 141 160 140 148 164 146 124 125 127 160 148 108 109
93 97 92 79 87 92 116 91 110 125 134 123 121 126 141 108 87 97 125 148 145 116 112 145 110 146 173 164 156 131 132 127 138 153 153 131 152 128
94 106 121 110 66 109 106 95 114 145 137 112 83 103 141 147 181 153 170 174 181 195 196 184 188 175 155 139 159 141 116 144 149 132 118 101 103 104
118 112 105 112 139 159 182 146 158 152 149 101 91 111 142 159 174 186 156 189 185 211 284 199 131 156 149 142 144 172 157 160 158 164 114 105 107 88
132 183 179 165 176 192 199 164 151 152 150 162 159 133 120 139 180 222 253 319 259 162 146 202 209 203 194 176 170 157 158 184 159 138 109 96 113 119
151 206 200 194 166 152 143 141 156 161 178 200 170 157 169 186 228 252 268 207 219 207 183 160 187 217 203 227 209 184 169 153 141 128 108 114 131 118
141 178 211 240 208 202 178 196 184 220 259 217 200 239 208 251 215 247 241 234 178 171 184 203 190 198 205 194 158 177 140 155 127 117 102 89 77 66
215 227 247 255 244 258 247 281 262 256 276 288 275 257 268 235 216 210 201 207 216 256 252 228 183 170 164 170 176 171 149 120 111 97 86 65 57 55
219 275 272 290 309 311 293 291 263 297 260 259 229 213 214 240 230 245 244 243 250 239 237 249 210 173 168 190 192 149 106 94 72 75 74 68 79 115
174 208 212 264 283 314 220 250 235 222 205 197 222 250 255 251 262 273 259 253 244 251 261 217 180 158 151 132 135 116 90 62 75 73 62 74 94 103
169 186 240 185 229 219 230 230 205 229 198 221 258 279 294 310 298 276 274 272 263 250 211 186 148 146 131 108 100 77 84 68 85 111 113 102 70 49
Wind_Speed
48 49 50 48 47 45 45 47 51 59 55 52 50 43 41 40 39 39 40 38 38 39 38 37 37 34 26 23 22 17 21 23 26 24 25 27 24 22
48 50 52 51 50 47 46 46 45 48 58 46 47 43 39 38 39 39 42 43 42 40 40 41 40 38 34 26 23 20 20 20 24 26 25 25 24 22
48 49 51 50 51 49 46 48 50 51 59 57 46 39 43 35 34 35 39 44 46 46 44 47 45 45 40 35 31 25 23 23 24 26 26 23 23 24
49 50 50 49 50 52 49 50 53 52 53 53 46 45 45 41 39 37 38 41 44 48 48 46 49 50 45 42 41 35 29 28 27 27 27 24 24 25
52 54 54 53 54 53 52 54 53 52 52 55 52 47 43 43 44 43 40 40 44 47 48 49 51 56 49 46 45 41 36 32 31 29 28 30 31 30
56 56 54 54 55 54 53 52 49 48 49 49 48 47 44 45 43 44 46 43 45 45 45 45 50 52 51 48 47 47 44 40 35 32 33 34 34 34
62 61 60 56 51 49 47 47 47 47 45 47 46 46 45 46 46 46 44 46 47 44 45 44 48 54 54 53 49 47 50 44 38 35 35 36 36 36
64 59 58 51 47 44 40 39 37 38 41 40 40 42 41 42 40 42 42 44 52 42 45 51 47 58 57 54 53 50 47 47 44 41 40 38 38 37
60 58 56 51 45 48 43 38 36 32 31 29 33 36 40 37 37 42 45 47 51 48 42 48 46 61 55 54 54 54 52 52 50 46 43 41 40 40
54 54 49 46 41 40 37 36 34 28 28 25 27 30 31 36 37 39 41 45 49 47 45 53 54 58 53 50 49 51 52 50 50 48 47 44 43 45
53 52 50 52 44 38 40 33 32 32 27 25 26 28 30 32 35 36 39 39 51 54 43 46 54 56 52 50 48 49 51 49 48 49 47 48 48 45
55 54 50 45 42 37 36 37 37 32 28 27 23 26 25 25 26 29 30 32 42 47 41 48 54 51 55 51 50 51 48 47 46 46 47 46 39 41
57 55 54 50 45 40 36 37 36 31 28 26 22 20 22 21 23 27 29 32 35 40 42 43 48 46 47 44 40 41 42 42 43 44 43 43 39 37
55 53 53 50 47 45 42 39 36 32 31 28 26 22 19 18 24 22 26 28 37 42 36 39 44 40 38 40 43 41 41 43 43 42 40 38 41 43
56 53 52 51 50 47 46 41 38 38 36 33 28 25 22 19 17 16 25 28 35 40 36 38 33 25 30 33 35 38 40 42 39 36 37 40 43 42
57 56 52 49 49 49 48 47 44 39 37 33 30 27 24 23 23 23 27 24 27 35 33 26 22 26 30 33 33 35 37 37 34 37 37 38 36 37
53 53 52 52 53 51 49 45 43 40 39 37 33 29 28 29 33 31 33 33 31 15 16 24 26 25 29 28 28 32 34 37 36 33 33 37 37 41
55 54 53 52 50 49 47 45 41 41 39 37 35 32 31 34 36 37 26 24 22 21 22 19 18 23 31 34 34 32 31 29 30 32 35 40 42 44
63 59 57 52 50 47 45 43 38 39 39 39 40 36 34 31 30 30 27 25 23 16 17 19 17 25 29 34 28 31 25 31 34 37 39 41 44 48
61 58 52 52 51 47 46 42 40 41 39 38 39 34 34 30 27 26 22 19 17 19 19 23 25 28 30 24 24 29 31 31 34 38 40 42 41 41
55 51 51 53 49 44 40 36 37 36 33 32 34 30 30 25 24 21 20 16 15 17 19 21 21 17 18 20 22 27 31 35 36 38 41 45 46 47
57 39 37 41 37 39 35 30 28 25 23 26 26 27 25 21 19 19 19 17 16 14 11 11 13 15 19 23 24 28 32 36 37 36 35 38 45 52
53 45 38 24 28 30 30 28 23 18 22 22 21 22 21 21 19 16 12 9 6 7 9 11 12 16 19 21 26 30 36 38 40 44 40 39 39 41
Wind_Direction
271 273 274 277 279 279 280 282 286 286 287 292 294 295 290 289 285 282 282 281 282 284 286 288 293 300 300 304 309 320 331 328 327 331 332 334 349 4
272 273 274 277 278 278 278 280 282 284 288 292 294 299 302 295 289 285 280 281 281 280 281 281 284 290 296 294 297 300 311 319 324 323 325 331 338 347
272 272 274 274 276 277 276 278 279 283 286 292 292 292 300 300 300 292 284 281 282 279 279 279 279 282 288 290 291 292 297 304 312 316 321 326 329 330
271 272 273 274 274 276 276 276 278 281 283 284 288 288 290 295 295 294 292 290 285 280 278 279 278 278 281 285 286 287 288 293 300 308 313 320 321 322
271 272 273 273 273 274 275 276 278 279 279 282 283 287 286 295 292 292 291 292 292 287 280 277 276 275 279 280 282 284 286 288 293 300 307 312 314 316
273 274 274 273 273 273 272 272 275 276 276 278 280 281 285 291 292 289 289 289 289 289 286 282 277 276 278 280 280 281 283 286 289 293 299 305 309 312
276 276 277 275 274 269 270 272 271 274 272 270 273 278 278 283 287 288 287 289 289 287 288 284 280 277 279 279 280 281 283 287 289 290 294 299 303 308
277 277 279 278 272 271 264 263 269 268 269 262 264 268 276 282 286 282 288 290 289 289 289 285 280 276 278 280 281 283 286 288 289 290 292 294 298 302
277 277 279 280 274 278 273 259 255 256 259 259 259 264 275 277 278 278 285 285 287 288 288 290 288 277 281 282 283 285 289 291 292 292 292 293 295 298
277 277 278 277 277 279 275 274 262 259 254 259 260 266 273 280 275 283 277 283 287 289 286 284 281 279 285 287 289 291 293 295 296 298 297 296 294 295
276 275 276 277 277 270 274 270 271 268 267 256 260 269 276 282 280 287 280 281 282 282 280 284 280 279 285 289 295 298 299 301 302 302 304 303 301 300
277 274 272 273 272 268 270 269 269 271 267 269 266 278 279 278 274 274 277 275 283 287 283 276 276 281 285 292 297 301 303 304 306 308 307 309 311 310
273 274 271 268 269 267 265 265 271 276 269 266 251 262 270 273 278 282 272 276 279 283 285 276 281 284 289 297 303 310 312 315 313 313 315 314 317 316
274 273 272 267 264 265 266 267 271 275 277 272 266 256 252 261 277 279 282 285 284 283 280 281 286 288 292 295 299 310 315 318 320 319 320 321 319 316
274 275 273 268 265 264 263 264 267 270 272 270 264 257 247 254 267 280 289 287 287 285 285 286 288 297 304 303 309 312 314 322 326 326 326 323 322 326
272 272 272 271 266 267 266 264 266 265 265 265 267 273 276 268 262 266 277 281 287 291 295 295 297 303 301 304 314 315 320 321 326 326 331 338 340 338
271 269 270 268 267 263 264 263 262 262 262 264 266 266 269 269 268 269 273 276 277 277 287 300 302 308 309 321 326 323 320 319 327 334 336 334 336 336
268 265 264 263 262 260 259 259 258 256 258 259 261 260 261 263 267 266 265 265 264 270 281 288 298 304 309 322 330 328 332 336 338 337 335 330 329 333
267 263 263 261 258 257 256 255 254 257 256 257 258 257 258 254 253 258 254 258 264 274 286 290 296 303 308 313 338 345 344 338 336 334 336 335 332 331
265 263 260 260 256 257 256 253 254 255 255 254 251 247 250 247 245 253 252 247 255 275 286 296 301 304 305 315 327 338 346 344 340 337 338 339 341 343
269 263 258 257 258 255 249 248 248 245 249 240 241 240 240 243 244 248 255 257 263 276 285 296 312 343 350 349 339 336 345 349 348 343 341 340 337 339
264 265 261 259 252 243 232 234 238 238 235 230 231 237 239 238 239 248 255 258 273 282 300 330 337 340 337 332 330 332 339 343 347 350 352 350 342 336
260 260 261 260 238 230 225 220 210 214 224 223 224 234 239 244 252 256 258 262 265 288 302 316 326 337 339 336 333 334 335 338 341 339 350 356 353 348